THOR ABLESTAR DEB, 465

Orbit data source: Space-Track

THOR ABLESTAR DEB, 465 is space debris in LEO originally from a launch on Thu, 29 Jun 1961 UTC launched from the Air Force Eastern Test Range (AFETR). Debris objects in space refer to the collection of defunct objects orbiting the Earth. Examples of debris include non-operational satellites, rocket bodies, and fragments generated from explosions, collisions, or faulty payload assembly.

Loading next visibility...
Identifier
465, 1961-015FB
Orbit
LEO
Country
Flag of USUS
Related business
Manufacturer
Unknown
Mission
Spacecraft
Bus & Motor
Unknown
Mass
Unknown
Launch date (UTC)
1961-06-29 (65 years ago)
Launch vehicle
Unknown
Launch site
Air Force Eastern Test Range (AFETR)
Object type
Payload
Rocket body
Debris
Shape & HBR
Unknown shape, 0.1 m
Radar Cross Section
Small (<0.1 m²)

Expand to show TLE details & history
Last TLE update: 14 hours ago

TLE from 14 hours ago
0 THOR ABLESTAR DEB
1   465U 61015FB  26131.04370809  .00001106  00000-0  36906-3 0  9997
2   465  66.3185 356.0401 0037509 320.3598  39.4761 14.40956466340753
Epoch: 2026-05-11T01:02Z
TLE epoch observation values (Epoch: 2026-05-11T01:02:56.378Z)
Latitude
-0.00006°
Longitude
111.46707°
Altitude
736.813 km
Speed
7.498 km/s
True Right ascension
23h 44m 09s
True Declination
0° 00' 00"
Sunlit
Object was in daylight at epoch
Visualization orbit readout
Latitude
Unknown
Longitude
Unknown
Altitude
Unknown
Speed
Unknown
Apparent Right ascension
Unknown
Apparent Declination
Unknown
Sunlit
N/A
Visualization observer readout
Local Sidereal Time
23:24:24
Azimuth
Unknown
Elevation
Unknown
Doppler factor
Unknown
Orbital elements
Apogee altitude
780.503 km
Perigee altitude
727.001 km
Semi-major axis
7,131.889 km
Eccentricity
0.00375
Inclination
66.3185°
RAAN
356.0401°
Arg. of periapsis
320.3598°
True anomaly
39.75035°
Mean anomaly
39.4761°
Eccentric anomaly
39.61313°
Mean motion
3.6036 °/min
Orbital period
99.9 mins
BSTAR
0.00036906
Loading maneuver chart data...
Computing Atmospheric mass density...

Documentation

Showing up to 5 results
|